| time (UTC) | temp C | wind direction | speed KPH | gust KPH | rain 1hr cm | rain 24hr cm | rain mn cm | humidity % | barometer mb |
| 20260508213636 | 23 | 87 | 1.6 | 11.3 | 0.00 | 0.00 | 0.00 | 17 | 1017.8 |
| 20260508213131 | 23 | 86 | 3.2 | 14.5 | 0.00 | 0.00 | 0.00 | 17 | 1017.8 |
| 20260508212644 | 23 | 74 | 3.2 | 14.5 | 0.00 | 0.00 | 0.00 | 16 | 1017.8 |
| 20260508212137 | 23 | 340 | 1.6 | 11.3 | 0.00 | 0.00 | 0.00 | 17 | 1018.0 |
| 20260508211630 | 23 | 327 | 3.2 | 6.4 | 0.00 | 0.00 | 0.00 | 16 | 1017.9 |
| 20260508211124 | 23 | 5 | 3.2 | 9.7 | 0.00 | 0.00 | 0.00 | 16 | 1018.0 |
| 20260508210657 | 23 | 247 | 3.2 | 9.7 | 0.00 | 0.00 | 0.00 | 16 | 1018.1 |
| 20260508210130 | 24 | 318 | 3.2 | 11.3 | 0.00 | 0.00 | 0.00 | 16 | 1018.2 |
| 20260508205627 | 24 | 355 | 3.2 | 11.3 | 0.00 | 0.00 | 0.00 | 17 | 1018.2 |
| 20260508205141 | 23 | 59 | 3.2 | 14.5 | 0.00 | 0.00 | 0.00 | 17 | 1018.2 |
| 20260508204634 | 23 | 63 | 6.4 | 14.5 | 0.00 | 0.00 | 0.00 | 16 | 1018.2 |
| 20260508204148 | 23 | 152 | 4.8 | 11.3 | 0.00 | 0.00 | 0.00 | 16 | 1018.3 |
| 20260508203641 | 24 | 261 | 3.2 | 11.3 | 0.00 | 0.00 | 0.00 | 16 | 1018.5 |
| 20260508203134 | 23 | 101 | 3.2 | 8.0 | 0.00 | 0.00 | 0.00 | 16 | 1018.5 |
| 20260508202627 | 23 | 154 | 4.8 | 16.1 | 0.00 | 0.00 | 0.00 | 17 | 1018.5 |
| 20260508202140 | 23 | 294 | 8.0 | 16.1 | 0.00 | 0.00 | 0.00 | 17 | 1018.7 |
| 20260508201634 | 23 | 107 | 3.2 | 16.1 | 0.00 | 0.00 | 0.00 | 17 | 1018.7 |
| 20260508201132 | 23 | 149 | 6.4 | 16.1 | 0.00 | 0.00 | 0.00 | 16 | 1018.8 |
| 20260508200625 | 23 | 130 | 6.4 | 16.1 | 0.00 | 0.00 | 0.00 | 16 | 1018.8 |
| 20260508200159 | 22 | 157 | 3.2 | 12.9 | 0.00 | 0.00 | 0.00 | 17 | 1018.8 |
| 20260508195631 | 23 | 31 | 3.2 | 16.1 | 0.00 | 0.00 | 0.00 | 17 | 1019.0 |
| 20260508195125 | 22 | 155 | 4.8 | 16.1 | 0.00 | 0.00 | 0.00 | 17 | 1019.0 |
| 20260508194638 | 22 | 131 | 8.0 | 14.5 | 0.00 | 0.00 | 0.00 | 17 | 1019.0 |
| 20260508194133 | 22 | 159 | 3.2 | 17.7 | 0.00 | 0.00 | 0.00 | 18 | 1019.1 |
| 20260508193626 | 22 | 171 | 3.2 | 11.3 | 0.00 | 0.00 | 0.00 | 17 | 1019.2 |
| 20260508193143 | 22 | 254 | 4.8 | 12.9 | 0.00 | 0.00 | 0.00 | 17 | 1019.2 |
| 20260508192657 | 22 | 161 | 3.2 | 12.9 | 0.00 | 0.00 | 0.00 | 17 | 1019.1 |
| 20260508192128 | 22 | 135 | 4.8 | 14.5 | 0.00 | 0.00 | 0.00 | 17 | 1019.2 |
| 20260508191643 | 22 | 142 | 4.8 | 14.5 | 0.00 | 0.00 | 0.00 | 17 | 1019.2 |
| 20260508191136 | 22 | 188 | 3.2 | 9.7 | 0.00 | 0.00 | 0.00 | 18 | 1019.4 |
| 20260508190629 | 22 | 46 | 1.6 | 12.9 | 0.00 | 0.00 | 0.00 | 18 | 1019.3 |
| 20260508190142 | 22 | 112 | 3.2 | 11.3 | 0.00 | 0.00 | 0.00 | 18 | 1019.4 |
| 20260508185636 | 22 | 83 | 3.2 | 11.3 | 0.00 | 0.00 | 0.00 | 18 | 1019.5 |
| 20260508185133 | 22 | 53 | 4.8 | 12.9 | 0.00 | 0.00 | 0.00 | 19 | 1019.4 |
| 20260508184627 | 21 | 203 | 4.8 | 14.5 | 0.00 | 0.00 | 0.00 | 18 | 1019.7 |
| 20260508184140 | 21 | 119 | 4.8 | 14.5 | 0.00 | 0.00 | 0.00 | 19 | 1019.7 |
| 20260508183634 | 21 | 167 | 3.2 | 8.0 | 0.00 | 0.00 | 0.00 | 17 | 1019.7 |
| 20260508183126 | 21 | 262 | 4.8 | 14.5 | 0.00 | 0.00 | 0.00 | 18 | 1019.8 |
| 20260508182640 | 21 | 192 | 6.4 | 16.1 | 0.00 | 0.00 | 0.00 | 18 | 1019.9 |
| 20260508182154 | 21 | 90 | 6.4 | 16.1 | 0.00 | 0.00 | 0.00 | 18 | 1019.8 |
| 20260508181625 | 21 | 68 | 6.4 | 11.3 | 0.00 | 0.00 | 0.00 | 19 | 1019.9 |
| 20260508181123 | 21 | 171 | 6.4 | 11.3 | 0.00 | 0.00 | 0.00 | 19 | 1020.0 |
| 20260508180656 | 21 | 138 | 3.2 | 9.7 | 0.00 | 0.00 | 0.00 | 18 | 1020.1 |
| 20260508180128 | 21 | 178 | 4.8 | 17.7 | 0.00 | 0.00 | 0.00 | 19 | 1020.2 |
| 20260508175641 | 21 | 140 | 6.4 | 17.7 | 0.00 | 0.00 | 0.00 | 19 | 1020.2 |
| 20260508175135 | 21 | 150 | 4.8 | 14.5 | 0.00 | 0.00 | 0.00 | 19 | 1020.3 |
| 20260508174628 | 20 | 134 | 3.2 | 14.5 | 0.00 | 0.00 | 0.00 | 20 | 1020.3 |
| 20260508174143 | 20 | 140 | 4.8 | 17.7 | 0.00 | 0.00 | 0.00 | 18 | 1020.3 |
| 20260508173637 | 20 | 148 | 8.0 | 12.9 | 0.00 | 0.00 | 0.00 | 19 | 1020.4 |
| 20260508173131 | 20 | 20 | 3.2 | 6.4 | 0.00 | 0.00 | 0.00 | 20 | 1020.6 |
| 20260508172629 | 20 | 146 | 4.8 | 17.7 | 0.00 | 0.00 | 0.00 | 20 | 1020.6 |
| 20260508172203 | 20 | 138 | 9.7 | 17.7 | 0.00 | 0.00 | 0.00 | 19 | 1020.6 |
| 20260508171636 | 20 | 163 | 8.0 | 16.1 | 0.00 | 0.00 | 0.00 | 21 | 1020.7 |
| 20260508171130 | 18 | 175 | 3.2 | 11.3 | 0.00 | 0.00 | 0.00 | 21 | 1020.8 |
| 20260508170624 | 18 | 113 | 3.2 | 17.7 | 0.00 | 0.00 | 0.00 | 21 | 1020.8 |
| 20260508170139 | 18 | 141 | 6.4 | 17.7 | 0.00 | 0.00 | 0.00 | 21 | 1020.9 |
| 20260508165633 | 18 | 32 | 4.8 | 9.7 | 0.00 | 0.00 | 0.00 | 22 | 1020.8 |
| 20260508165127 | 17 | 51 | 6.4 | 8.0 | 0.00 | 0.00 | 0.00 | 22 | 1020.8 |
| 20260508164625 | 18 | 69 | 1.6 | 12.9 | 0.00 | 0.00 | 0.00 | 23 | 1021.0 |
| 20260508164139 | 18 | 248 | 3.2 | 12.9 | 0.00 | 0.00 | 0.00 | 21 | 1021.0 |
| 20260508163653 | 18 | 36 | 3.2 | 11.3 | 0.00 | 0.00 | 0.00 | 21 | 1021.1 |
| 20260508163145 | 18 | 150 | 3.2 | 11.3 | 0.00 | 0.00 | 0.00 | 22 | 1021.0 |
| 20260508162637 | 18 | 108 | 3.2 | 11.3 | 0.00 | 0.00 | 0.00 | 22 | 1021.1 |
| 20260508162150 | 17 | 157 | 4.8 | 9.7 | 0.00 | 0.00 | 0.00 | 24 | 1021.1 |
| 20260508161641 | 17 | 147 | 4.8 | 11.3 | 0.00 | 0.00 | 0.00 | 23 | 1021.1 |
| 20260508161135 | 17 | 43 | 3.2 | 6.4 | 0.00 | 0.00 | 0.00 | 23 | 1021.1 |
| 20260508160629 | 17 | 55 | 4.8 | 8.0 | 0.00 | 0.00 | 0.00 | 23 | 1021.2 |
| 20260508160203 | 17 | 144 | 3.2 | 11.3 | 0.00 | 0.00 | 0.00 | 23 | 1021.2 |
| 20260508155636 | 17 | 143 | 3.2 | 9.7 | 0.00 | 0.00 | 0.00 | 25 | 1021.2 |
| 20260508155154 | 16 | 65 | 3.2 | 8.0 | 0.00 | 0.00 | 0.00 | 25 | 1021.2 |
| 20260508154626 | 16 | 178 | 3.2 | 9.7 | 0.00 | 0.00 | 0.00 | 26 | 1021.3 |
| 20260508154140 | 15 | 46 | 6.4 | 9.7 | 0.00 | 0.00 | 0.00 | 25 | 1021.3 |
| 20260508153632 | 15 | 53 | 6.4 | 9.7 | 0.00 | 0.00 | 0.00 | 25 | 1021.3 |
| 20260508153125 | 15 | 154 | 4.8 | 12.9 | 0.00 | 0.00 | 0.00 | 25 | 1021.3 |
| 20260508152659 | 15 | 49 | 6.4 | 9.7 | 0.00 | 0.00 | 0.00 | 24 | 1021.4 |
| 20260508152132 | 15 | 91 | 3.2 | 8.0 | 0.00 | 0.00 | 0.00 | 24 | 1021.3 |
| 20260508151645 | 15 | 162 | 3.2 | 8.0 | 0.00 | 0.00 | 0.00 | 25 | 1021.3 |
| 20260508151138 | 15 | 171 | 3.2 | 6.4 | 0.00 | 0.00 | 0.00 | 25 | 1021.4 |
| 20260508150635 | 15 | 49 | 1.6 | 6.4 | 0.00 | 0.00 | 0.00 | 25 | 1021.4 |
| 20260508150129 | 15 | 35 | 3.2 | 6.4 | 0.00 | 0.00 | 0.00 | 25 | 1021.5 |
| 20260508145642 | 15 | 59 | 1.6 | 8.0 | 0.00 | 0.00 | 0.00 | 27 | 1021.4 |
| 20260508145156 | 15 | 169 | 4.8 | 8.0 | 0.00 | 0.00 | 0.00 | 25 | 1021.5 |
| 20260508144628 | 14 | 142 | 3.2 | 4.8 | 0.00 | 0.00 | 0.00 | 26 | 1021.4 |
| 20260508144201 | 13 | 113 | 1.6 | 8.0 | 0.00 | 0.00 | 0.00 | 27 | 1021.5 |
| 20260508143653 | 13 | 156 | 3.2 | 8.0 | 0.00 | 0.00 | 0.00 | 27 | 1021.4 |
| 20260508143126 | 12 | 136 | 1.6 | 6.4 | 0.00 | 0.00 | 0.00 | 28 | 1021.5 |
| 20260508142639 | 12 | 59 | 1.6 | 4.8 | 0.00 | 0.00 | 0.00 | 29 | 1021.5 |
| 20260508142133 | 11 | 79 | 1.6 | 4.8 | 0.00 | 0.00 | 0.00 | 31 | 1021.4 |
| 20260508141630 | 11 | 38 | 3.2 | 4.8 | 0.00 | 0.00 | 0.00 | 31 | 1021.4 |
| 20260508141144 | 10 | 144 | 0.0 | 3.2 | 0.00 | 0.00 | 0.00 | 34 | 1021.3 |
| 20260508140636 | 9 | 144 | 0.0 | 3.2 | 0.00 | 0.00 | 0.00 | 41 | 1021.3 |
| 20260508140150 | 8 | 144 | 0.0 | 1.6 | 0.00 | 0.00 | 0.00 | 42 | 1021.3 |
| 20260508135642 | 8 | 144 | 0.0 | 0.0 | 0.00 | 0.00 | 0.00 | 45 | 1021.3 |
| 20260508135155 | 7 | 144 | 0.0 | 0.0 | 0.00 | 0.00 | 0.00 | 45 | 1021.3 |
| 20260508134626 | 7 | 144 | 0.0 | 0.0 | 0.00 | 0.00 | 0.00 | 43 | 1021.3 |
| 20260508134141 | 7 | 144 | 0.0 | 0.0 | 0.00 | 0.00 | 0.00 | 45 | 1021.3 |
| 20260508133634 | 7 | 144 | 0.0 | 0.0 | 0.00 | 0.00 | 0.00 | 41 | 1021.2 |
| 20260508133132 | 6 | 144 | 0.0 | 0.0 | 0.00 | 0.00 | 0.00 | 43 | 1021.2 |
| 20260508132625 | 6 | 144 | 0.0 | 0.0 | 0.00 | 0.00 | 0.00 | 43 | 1021.1 |
| 20260508132138 | 5 | 144 | 0.0 | 0.0 | 0.00 | 0.00 | 0.00 | 42 | 1021.1 |
| 20260508131632 | 5 | 144 | 0.0 | 0.0 | 0.00 | 0.00 | 0.00 | 46 | 1020.9 |
| 20260508131125 | 5 | 144 | 0.0 | 0.0 | 0.00 | 0.00 | 0.00 | 45 | 1020.8 |
| 20260508130640 | 4 | 144 | 0.0 | 0.0 | 0.00 | 0.00 | 0.00 | 47 | 1020.8 |
| 20260508130133 | 4 | 144 | 0.0 | 0.0 | 0.00 | 0.00 | 0.00 | 46 | 1020.7 |
| 20260508125647 | 4 | 144 | 0.0 | 0.0 | 0.00 | 0.00 | 0.00 | 46 | 1020.6 |
| 20260508125124 | 4 | 144 | 0.0 | 0.0 | 0.00 | 0.00 | 0.00 | 46 | 1020.6 |
| 20260508124637 | 4 | 126 | 0.0 | 0.0 | 0.00 | 0.00 | 0.00 | 45 | 1020.5 |
| 20260508124129 | 4 | 218 | 0.0 | 0.0 | 0.00 | 0.00 | 0.00 | 44 | 1020.4 |
| 20260508123623 | 4 | 218 | 0.0 | 0.0 | 0.00 | 0.00 | 0.00 | 44 | 1020.3 |
| 20260508123137 | 4 | 218 | 0.0 | 4.8 | 0.00 | 0.00 | 0.00 | 44 | 1020.3 |
| 20260508122630 | 4 | 218 | 0.0 | 4.8 | 0.00 | 0.00 | 0.00 | 44 | 1020.2 |
| 20260508122123 | 4 | 218 | 1.6 | 4.8 | 0.00 | 0.00 | 0.00 | 42 | 1020.1 |
| 20260508121638 | 4 | 91 | 0.0 | 3.2 | 0.00 | 0.00 | 0.00 | 43 | 1020.1 |
| 20260508121150 | 4 | 91 | 0.0 | 3.2 | 0.00 | 0.00 | 0.00 | 41 | 1020.1 |
| 20260508120627 | 5 | 91 | 0.0 | 0.0 | 0.00 | 0.00 | 0.00 | 40 | 1020.0 |
| 20260508120141 | 5 | 91 | 0.0 | 0.0 | 0.00 | 0.00 | 0.00 | 40 | 1020.1 |
| 20260508115654 | 5 | 91 | 0.0 | 0.0 | 0.00 | 0.00 | 0.00 | 39 | 1020.0 |
| 20260508115147 | 5 | 91 | 0.0 | 0.0 | 0.00 | 0.00 | 0.00 | 39 | 1020.1 |
| 20260508114639 | 5 | 91 | 0.0 | 0.0 | 0.00 | 0.00 | 0.00 | 40 | 1020.1 |
| 20260508114132 | 5 | 91 | 0.0 | 0.0 | 0.00 | 0.00 | 0.00 | 40 | 1020.1 |
| 20260508113626 | 6 | 91 | 0.0 | 0.0 | 0.00 | 0.00 | 0.00 | 40 | 1020.1 |
| 20260508113140 | 6 | 91 | 0.0 | 3.2 | 0.00 | 0.00 | 0.00 | 37 | 1019.9 |
| 20260508112633 | 6 | 91 | 1.6 | 3.2 | 0.00 | 0.00 | 0.00 | 38 | 1020.0 |
| 20260508112130 | 6 | 91 | 0.0 | 4.8 | 0.00 | 0.00 | 0.00 | 39 | 1019.9 |
| 20260508111624 | 6 | 91 | 1.6 | 4.8 | 0.00 | 0.00 | 0.00 | 35 | 1019.9 |
| 20260508111137 | 6 | 223 | 3.2 | 4.8 | 0.00 | 0.00 | 0.00 | 38 | 1019.9 |
| 20260508110631 | 6 | 223 | 1.6 | 4.8 | 0.00 | 0.00 | 0.00 | 37 | 1019.7 |
| 20260508110204 | 6 | 201 | 0.0 | 0.0 | 0.00 | 0.00 | 0.00 | 40 | 1019.8 |
| 20260508105636 | 6 | 87 | 0.0 | 0.0 | 0.00 | 0.00 | 0.00 | 40 | 1019.9 |
| 20260508105128 | 6 | 87 | 0.0 | 0.0 | 0.00 | 0.00 | 0.00 | 36 | 1019.8 |
| 20260508104643 | 6 | 32 | 0.0 | 0.0 | 0.00 | 0.00 | 0.00 | 38 | 1019.8 |
| 20260508104136 | 6 | 286 | 0.0 | 0.0 | 0.00 | 0.00 | 0.00 | 38 | 1019.6 |
| 20260508103654 | 6 | 194 | 0.0 | 0.0 | 0.00 | 0.00 | 0.00 | 39 | 1019.5 |
| 20260508103126 | 6 | 194 | 0.0 | 4.8 | 0.00 | 0.00 | 0.00 | 38 | 1019.4 |
| 20260508102639 | 6 | 194 | 1.6 | 4.8 | 0.00 | 0.00 | 0.00 | 36 | 1019.3 |
| 20260508102133 | 6 | 272 | 0.0 | 4.8 | 0.00 | 0.00 | 0.00 | 38 | 1019.3 |
| 20260508101626 | 6 | 294 | 1.6 | 4.8 | 0.00 | 0.00 | 0.00 | 35 | 1019.3 |
| 20260508101140 | 6 | 360 | 1.6 | 6.4 | 0.00 | 0.00 | 0.00 | 35 | 1019.2 |
| 20260508100633 | 5 | 232 | 3.2 | 6.4 | 0.00 | 0.00 | 0.00 | 34 | 1019.2 |
| 20260508100127 | 5 | 77 | 0.0 | 0.0 | 0.00 | 0.00 | 0.00 | 35 | 1019.3 |
| 20260508095645 | 5 | 23 | 0.0 | 0.0 | 0.00 | 0.00 | 0.00 | 34 | 1019.4 |
| 20260508095138 | 5 | 23 | 0.0 | 4.8 | 0.00 | 0.00 | 0.00 | 34 | 1019.4 |
| 20260508094631 | 6 | 23 | 0.0 | 4.8 | 0.00 | 0.00 | 0.00 | 35 | 1019.3 |
| 20260508094124 | 6 | 288 | 1.6 | 4.8 | 0.00 | 0.00 | 0.00 | 34 | 1019.3 |
| 20260508093638 | 6 | 296 | 1.6 | 4.8 | 0.00 | 0.00 | 0.00 | 33 | 1019.3 |
| 20260508093132 | 6 | 201 | 0.0 | 0.0 | 0.00 | 0.00 | 0.00 | 34 | 1019.4 |
| 20260508092645 | 6 | 196 | 0.0 | 0.0 | 0.00 | 0.00 | 0.00 | 32 | 1019.5 |
| 20260508092138 | 6 | 196 | 0.0 | 0.0 | 0.00 | 0.00 | 0.00 | 33 | 1019.5 |
| 20260508091632 | 6 | 196 | 0.0 | 0.0 | 0.00 | 0.00 | 0.00 | 33 | 1019.6 |
| 20260508091149 | 7 | 196 | 0.0 | 0.0 | 0.00 | 0.00 | 0.00 | 33 | 1019.6 |
| 20260508090643 | 7 | 196 | 0.0 | 0.0 | 0.00 | 0.00 | 0.00 | 31 | 1019.6 |
| 20260508090135 | 7 | 196 | 0.0 | 0.0 | 0.00 | 0.00 | 0.00 | 30 | 1019.7 |
| 20260508085648 | 7 | 196 | 0.0 | 0.0 | 0.00 | 0.00 | 0.00 | 29 | 1019.7 |
| 20260508085141 | 8 | 196 | 0.0 | 0.0 | 0.00 | 0.00 | 0.00 | 30 | 1019.7 |
| 20260508084656 | 8 | 196 | 0.0 | 0.0 | 0.00 | 0.00 | 0.00 | 30 | 1019.7 |
| 20260508084128 | 8 | 196 | 0.0 | 0.0 | 0.00 | 0.00 | 0.00 | 28 | 1019.7 |
| 20260508083642 | 8 | 196 | 0.0 | 0.0 | 0.00 | 0.00 | 0.00 | 30 | 1019.7 |
| 20260508083136 | 9 | 196 | 0.0 | 1.6 | 0.00 | 0.00 | 0.00 | 27 | 1019.7 |
| 20260508082649 | 10 | 196 | 0.0 | 1.6 | 0.00 | 0.00 | 0.00 | 26 | 1019.7 |
| 20260508082126 | 10 | 196 | 0.0 | 0.0 | 0.00 | 0.00 | 0.00 | 26 | 1019.6 |
| 20260508081640 | 10 | 196 | 0.0 | 1.6 | 0.00 | 0.00 | 0.00 | 25 | 1019.6 |
| 20260508081134 | 11 | 196 | 1.6 | 3.2 | 0.00 | 0.00 | 0.00 | 26 | 1019.7 |
| 20260508080627 | 11 | 196 | 0.0 | 3.2 | 0.00 | 0.00 | 0.00 | 23 | 1019.7 |
| 20260508080202 | 11 | 196 | 0.0 | 3.2 | 0.00 | 0.00 | 0.00 | 21 | 1019.7 |
| 20260508075630 | 12 | 196 | 0.0 | 1.6 | 0.00 | 0.00 | 0.00 | 21 | 1019.7 |
| 20260508075123 | 12 | 196 | 0.0 | 4.8 | 0.00 | 0.00 | 0.00 | 20 | 1019.7 |
| 20260508074637 | 12 | 196 | 1.6 | 4.8 | 0.00 | 0.00 | 0.00 | 19 | 1019.7 |
| 20260508074135 | 12 | 250 | 3.2 | 8.0 | 0.00 | 0.00 | 0.00 | 19 | 1019.7 |
| 20260508073628 | 13 | 284 | 4.8 | 11.3 | 0.00 | 0.00 | 0.00 | 19 | 1019.7 |
| 20260508073141 | 13 | 238 | 4.8 | 11.3 | 0.00 | 0.00 | 0.00 | 21 | 1019.8 |
| 20260508072635 | 13 | 161 | 4.8 | 8.0 | 0.00 | 0.00 | 0.00 | 23 | 1019.7 |
| 20260508072128 | 14 | 98 | 1.6 | 9.7 | 0.00 | 0.00 | 0.00 | 24 | 1019.7 |
| 20260508071640 | 14 | 55 | 4.8 | 9.7 | 0.00 | 0.00 | 0.00 | 23 | 1019.7 |
| 20260508071134 | 14 | 40 | 1.6 | 14.5 | 0.00 | 0.00 | 0.00 | 23 | 1019.6 |
| 20260508070628 | 14 | 27 | 4.8 | 14.5 | 0.00 | 0.00 | 0.00 | 23 | 1019.7 |
| 20260508070124 | 13 | 33 | 6.4 | 14.5 | 0.00 | 0.00 | 0.00 | 23 | 1019.7 |
| 20260508065638 | 13 | 36 | 4.8 | 12.9 | 0.00 | 0.00 | 0.00 | 23 | 1019.6 |
| 20260508065133 | 13 | 5 | 4.8 | 6.4 | 0.00 | 0.00 | 0.00 | 22 | 1019.6 |
| 20260508064625 | 13 | 34 | 1.6 | 6.4 | 0.00 | 0.00 | 0.00 | 21 | 1019.6 |
| 20260508064139 | 13 | 37 | 3.2 | 6.4 | 0.00 | 0.00 | 0.00 | 21 | 1019.5 |
| 20260508063632 | 13 | 304 | 1.6 | 6.4 | 0.00 | 0.00 | 0.00 | 20 | 1019.5 |
| 20260508063125 | 13 | 11 | 3.2 | 8.0 | 0.00 | 0.00 | 0.00 | 19 | 1019.6 |
| 20260508062638 | 13 | 355 | 4.8 | 8.0 | 0.00 | 0.00 | 0.00 | 19 | 1019.5 |
| 20260508062151 | 13 | 42 | 3.2 | 8.0 | 0.00 | 0.00 | 0.00 | 19 | 1019.5 |
| 20260508061627 | 13 | 13 | 3.2 | 6.4 | 0.00 | 0.00 | 0.00 | 19 | 1019.5 |
| 20260508061141 | 13 | 5 | 3.2 | 9.7 | 0.00 | 0.00 | 0.00 | 18 | 1019.5 |
| 20260508060634 | 14 | 28 | 6.4 | 9.7 | 0.00 | 0.00 | 0.00 | 17 | 1019.5 |
| 20260508060128 | 13 | 326 | 4.8 | 19.3 | 0.00 | 0.00 | 0.00 | 18 | 1019.5 |
| 20260508055640 | 13 | 17 | 3.2 | 19.3 | 0.00 | 0.00 | 0.00 | 17 | 1019.5 |
| 20260508055132 | 13 | 103 | 3.2 | 14.5 | 0.00 | 0.00 | 0.00 | 18 | 1019.5 |
| 20260508054625 | 13 | 323 | 3.2 | 14.5 | 0.00 | 0.00 | 0.00 | 18 | 1019.5 |
| 20260508054123 | 13 | 13 | 1.6 | 8.0 | 0.00 | 0.00 | 0.00 | 17 | 1019.6 |
| 20260508053636 | 13 | 14 | 1.6 | 9.7 | 0.00 | 0.00 | 0.00 | 17 | 1019.7 |
| 20260508053129 | 13 | 323 | 4.8 | 14.5 | 0.00 | 0.00 | 0.00 | 16 | 1019.6 |
| 20260508052643 | 13 | 41 | 3.2 | 14.5 | 0.00 | 0.00 | 0.00 | 16 | 1019.6 |
| 20260508052135 | 13 | 31 | 4.8 | 9.7 | 0.00 | 0.00 | 0.00 | 16 | 1019.7 |
| 20260508051628 | 13 | 313 | 4.8 | 9.7 | 0.00 | 0.00 | 0.00 | 17 | 1019.7 |
| 20260508051202 | 13 | 38 | 3.2 | 14.5 | 0.00 | 0.00 | 0.00 | 17 | 1019.6 |
| 20260508050635 | 13 | 346 | 4.8 | 14.5 | 0.00 | 0.00 | 0.00 | 16 | 1019.7 |
| 20260508050148 | 13 | 5 | 6.4 | 16.1 | 0.00 | 0.00 | 0.00 | 16 | 1019.7 |
| 20260508045624 | 13 | 35 | 4.8 | 16.1 | 0.00 | 0.00 | 0.00 | 16 | 1019.6 |
| 20260508045158 | 14 | 32 | 4.8 | 16.1 | 0.00 | 0.00 | 0.00 | 16 | 1019.6 |
| 20260508044630 | 14 | 355 | 6.4 | 16.1 | 0.00 | 0.00 | 0.00 | 16 | 1019.7 |
| 20260508044140 | 14 | 19 | 4.8 | 11.3 | 0.00 | 0.00 | 0.00 | 16 | 1019.7 |
| 20260508043629 | 14 | 342 | 4.8 | 11.3 | 0.00 | 0.00 | 0.00 | 16 | 1019.7 |
| 20260508043142 | 14 | 30 | 3.2 | 8.0 | 0.00 | 0.00 | 0.00 | 15 | 1019.7 |
| 20260508042636 | 14 | 5 | 3.2 | 12.9 | 0.00 | 0.00 | 0.00 | 15 | 1019.8 |
| 20260508042149 | 14 | 44 | 3.2 | 9.7 | 0.00 | 0.00 | 0.00 | 15 | 1019.7 |
| 20260508041702 | 14 | 33 | 6.4 | 9.7 | 0.00 | 0.00 | 0.00 | 14 | 1019.7 |
| 20260508041134 | 14 | 296 | 1.6 | 8.0 | 0.00 | 0.00 | 0.00 | 15 | 1019.7 |
| 20260508040649 | 14 | 41 | 4.8 | 8.0 | 0.00 | 0.00 | 0.00 | 15 | 1019.7 |
| 20260508040140 | 14 | 323 | 3.2 | 12.9 | 0.00 | 0.00 | 0.00 | 15 | 1019.7 |
| 20260508035639 | 15 | 13 | 3.2 | 12.9 | 0.00 | 0.00 | 0.00 | 15 | 1019.7 |
| 20260508035153 | 15 | 351 | 6.4 | 11.3 | 0.00 | 0.00 | 0.00 | 15 | 1019.7 |
| 20260508034624 | 15 | 347 | 3.2 | 9.7 | 0.00 | 0.00 | 0.00 | 15 | 1019.7 |
| 20260508034137 | 15 | 300 | 1.6 | 6.4 | 0.00 | 0.00 | 0.00 | 15 | 1019.6 |
| 20260508033631 | 15 | 300 | 3.2 | 8.0 | 0.00 | 0.00 | 0.00 | 15 | 1019.6 |
| 20260508033144 | 15 | 5 | 3.2 | 8.0 | 0.00 | 0.00 | 0.00 | 15 | 1019.5 |
| 20260508032637 | 15 | 257 | 1.6 | 6.4 | 0.00 | 0.00 | 0.00 | 15 | 1019.4 |
| 20260508032129 | 15 | 45 | 3.2 | 6.4 | 0.00 | 0.00 | 0.00 | 14 | 1019.4 |
| 20260508031644 | 15 | 5 | 3.2 | 9.7 | 0.00 | 0.00 | 0.00 | 15 | 1019.2 |
| 20260508031136 | 15 | 5 | 4.8 | 9.7 | 0.00 | 0.00 | 0.00 | 15 | 1019.2 |
| 20260508030634 | 15 | 9 | 3.2 | 6.4 | 0.00 | 0.00 | 0.00 | 15 | 1019.2 |
| 20260508030126 | 15 | 62 | 3.2 | 20.9 | 0.00 | 0.00 | 0.00 | 15 | 1019.0 |
| 20260508025639 | 15 | 5 | 4.8 | 20.9 | 0.00 | 0.00 | 0.00 | 15 | 1018.9 |
| 20260508025133 | 15 | 13 | 3.2 | 12.9 | 0.00 | 0.00 | 0.00 | 15 | 1018.9 |
| 20260508024625 | 15 | 15 | 3.2 | 8.0 | 0.00 | 0.00 | 0.00 | 16 | 1018.7 |
| 20260508024159 | 15 | 50 | 3.2 | 8.0 | 0.00 | 0.00 | 0.00 | 16 | 1018.7 |
| 20260508023631 | 15 | 91 | 1.6 | 3.2 | 0.00 | 0.00 | 0.00 | 17 | 1018.7 |
| 20260508023125 | 15 | 360 | 1.6 | 4.8 | 0.00 | 0.00 | 0.00 | 17 | 1018.7 |
| 20260508022638 | 15 | 302 | 3.2 | 4.8 | 0.00 | 0.00 | 0.00 | 19 | 1018.7 |
| 20260508022136 | 15 | 246 | 0.0 | 4.8 | 0.00 | 0.00 | 0.00 | 18 | 1018.7 |
| 20260508021629 | 14 | 68 | 1.6 | 4.8 | 0.00 | 0.00 | 0.00 | 20 | 1018.7 |
| 20260508021123 | 14 | 336 | 0.0 | 4.8 | 0.00 | 0.00 | 0.00 | 19 | 1018.6 |
| 20260508020636 | 13 | 336 | 3.2 | 4.8 | 0.00 | 0.00 | 0.00 | 20 | 1018.6 |
| 20260508020130 | 14 | 347 | 0.0 | 1.6 | 0.00 | 0.00 | 0.00 | 23 | 1018.5 |
| 20260508015624 | 14 | 347 | 0.0 | 3.2 | 0.00 | 0.00 | 0.00 | 21 | 1018.4 |
| 20260508015140 | 14 | 5 | 0.0 | 3.2 | 0.00 | 0.00 | 0.00 | 22 | 1018.4 |
| 20260508014632 | 15 | 271 | 0.0 | 0.0 | 0.00 | 0.00 | 0.00 | 21 | 1018.3 |
| 20260508014130 | 15 | 271 | 0.0 | 1.6 | 0.00 | 0.00 | 0.00 | 21 | 1018.2 |
| 20260508013625 | 16 | 271 | 0.0 | 3.2 | 0.00 | 0.00 | 0.00 | 21 | 1018.2 |
| 20260508013138 | 16 | 271 | 1.6 | 4.8 | 0.00 | 0.00 | 0.00 | 18 | 1018.1 |
| 20260508012631 | 17 | 271 | 1.6 | 4.8 | 0.00 | 0.00 | 0.00 | 17 | 1018.0 |
| 20260508012125 | 17 | 311 | 1.6 | 3.2 | 0.00 | 0.00 | 0.00 | 17 | 1017.9 |
| 20260508011639 | 17 | 311 | 0.0 | 1.6 | 0.00 | 0.00 | 0.00 | 15 | 1017.8 |
| 20260508011134 | 18 | 311 | 0.0 | 1.6 | 0.00 | 0.00 | 0.00 | 15 | 1017.8 |
| 20260508010627 | 18 | 311 | 0.0 | 4.8 | 0.00 | 0.00 | 0.00 | 14 | 1017.8 |
| 20260508010125 | 18 | 311 | 3.2 | 4.8 | 0.00 | 0.00 | 0.00 | 14 | 1017.8 |
| 20260508005638 | 18 | 360 | 1.6 | 3.2 | 0.00 | 0.00 | 0.00 | 13 | 1017.8 |
| 20260508005132 | 18 | 360 | 1.6 | 3.2 | 0.00 | 0.00 | 0.00 | 12 | 1017.8 |
| 20260508004626 | 18 | 360 | 1.6 | 3.2 | 0.00 | 0.00 | 0.00 | 13 | 1017.7 |
| 20260508004200 | 18 | 112 | 0.0 | 8.0 | 0.00 | 0.00 | 0.00 | 13 | 1017.7 |
| 20260508003653 | 19 | 137 | 1.6 | 8.0 | 0.00 | 0.00 | 0.00 | 12 | 1017.8 |
| 20260508003146 | 19 | 176 | 0.0 | 6.4 | 0.00 | 0.00 | 0.00 | 13 | 1017.8 |
| 20260508002638 | 19 | 166 | 0.0 | 12.9 | 0.00 | 0.00 | 0.00 | 12 | 1018.0 |
| 20260508002133 | 19 | 132 | 3.2 | 9.7 | 0.00 | 0.00 | 0.00 | 12 | 1017.9 |
| 20260508001645 | 20 | 168 | 3.2 | 9.7 | 0.00 | 0.00 | 0.00 | 12 | 1017.9 |
| 20260508001141 | 20 | 148 | 3.2 | 9.7 | 0.00 | 0.00 | 0.00 | 12 | 1017.9 |
| 20260508000652 | 20 | 177 | 1.6 | 11.3 | 0.00 | 0.00 | 0.00 | 12 | 1017.9 |
| 20260508000123 | 20 | 104 | 4.8 | 11.3 | 0.00 | 0.00 | 0.00 | 12 | 1017.9 |
| 20260507235656 | 20 | 113 | 1.6 | 6.4 | 0.00 | 0.00 | 0.00 | 13 | 1018.0 |
| 20260507235128 | 20 | 327 | 1.6 | 8.0 | 0.00 | 0.00 | 0.00 | 13 | 1018.1 |
| 20260507234642 | 20 | 130 | 4.8 | 8.0 | 0.00 | 0.00 | 0.00 | 12 | 1018.0 |
| 20260507234157 | 20 | 161 | 1.6 | 6.4 | 0.00 | 0.00 | 0.00 | 13 | 1018.1 |
| 20260507233630 | 20 | 227 | 1.6 | 8.0 | 0.00 | 0.00 | 0.00 | 14 | 1018.1 |
| 20260507233124 | 20 | 153 | 3.2 | 8.0 | 0.00 | 0.00 | 0.00 | 14 | 1018.2 |
| 20260507232636 | 20 | 94 | 0.0 | 8.0 | 0.00 | 0.00 | 0.00 | 15 | 1018.1 |
| 20260507232148 | 20 | 91 | 1.6 | 8.0 | 0.00 | 0.00 | 0.00 | 15 | 1018.2 |
| 20260507231644 | 20 | 97 | 1.6 | 12.9 | 0.00 | 0.00 | 0.00 | 15 | 1018.2 |
| 20260507231137 | 19 | 128 | 6.4 | 12.9 | 0.00 | 0.00 | 0.00 | 16 | 1018.3 |
| 20260507230630 | 19 | 221 | 3.2 | 9.7 | 0.00 | 0.00 | 0.00 | 16 | 1018.3 |
| 20260507230123 | 19 | 287 | 1.6 | 11.3 | 0.00 | 0.00 | 0.00 | 16 | 1018.5 |
| 20260507225635 | 20 | 126 | 4.8 | 11.3 | 0.00 | 0.00 | 0.00 | 17 | 1018.4 |
| 20260507225129 | 20 | 36 | 1.6 | 9.7 | 0.00 | 0.00 | 0.00 | 17 | 1018.5 |
| 20260507224623 | 20 | 90 | 3.2 | 6.4 | 0.00 | 0.00 | 0.00 | 17 | 1018.5 |
| 20260507224134 | 20 | 267 | 1.6 | 9.7 | 0.00 | 0.00 | 0.00 | 18 | 1018.5 |
| 20260507223627 | 19 | 238 | 4.8 | 9.7 | 0.00 | 0.00 | 0.00 | 18 | 1018.5 |
| 20260507223125 | 19 | 84 | 3.2 | 8.0 | 0.00 | 0.00 | 0.00 | 18 | 1018.6 |
| 20260507222639 | 19 | 290 | 3.2 | 8.0 | 0.00 | 0.00 | 0.00 | 18 | 1018.6 |
| 20260507222131 | 19 | 307 | 4.8 | 8.0 | 0.00 | 0.00 | 0.00 | 19 | 1018.7 |
| 20260507221625 | 19 | 146 | 3.2 | 14.5 | 0.00 | 0.00 | 0.00 | 19 | 1018.7 |
| 20260507221138 | 20 | 269 | 6.4 | 14.5 | 0.00 | 0.00 | 0.00 | 19 | 1018.8 |
| 20260507220631 | 20 | 136 | 4.8 | 12.9 | 0.00 | 0.00 | 0.00 | 20 | 1018.8 |
| 20260507220124 | 20 | 178 | 4.8 | 11.3 | 0.00 | 0.00 | 0.00 | 19 | 1018.9 |
| 20260507215637 | 20 | 310 | 1.6 | 4.8 | 0.00 | 0.00 | 0.00 | 20 | 1018.9 |
| 20260507215134 | 20 | 252 | 3.2 | 8.0 | 0.00 | 0.00 | 0.00 | 20 | 1019.1 |
| 20260507214628 | 20 | 169 | 4.8 | 8.0 | 0.00 | 0.00 | 0.00 | 20 | 1019.1 |
| 20260507214200 | 20 | 136 | 1.6 | 9.7 | 0.00 | 0.00 | 0.00 | 21 | 1019.2 |